Wind_Speed
67 69 70 71 72 72 73 76 79 81 83 83 82 79 75 73 68 65 63 62 61 58 58 58 52 48 49 49 49 51 47 46 43 43 42 41 41 36 34 32 29 28 29
71 70 70 71 72 73 71 71 72 72 75 76 76 77 76 73 71 67 65 65 61 60 60 56 52 49 48 49 44 44 43 43 42 42 39 39 41 42 41 35 31 28 29
73 74 73 73 74 75 73 72 71 70 70 71 69 69 69 67 65 65 64 62 57 54 48 48 40 43 46 47 42 41 42 44 40 39 39 42 45 49 50 47 43 33 34
77 77 76 74 74 74 74 74 73 72 72 71 68 67 64 62 58 57 54 53 46 41 33 36 41 50 53 45 44 40 39 40 38 38 39 43 51 52 49 48 49 49 44
81 79 75 70 67 65 65 67 69 71 72 72 70 66 63 56 52 52 49 50 39 38 24 45 50 57 56 56 57 58 47 40 40 42 46 52 50 56 47 40 35 37 36
82 80 78 75 73 71 71 69 67 67 67 66 64 65 66 68 60 54 52 47 40 39 30 36 65 75 64 60 58 63 61 55 54 42 46 50 64 60 59 52 52 44 33
81 81 80 80 82 82 81 80 79 77 75 74 72 69 69 67 63 65 67 58 44 53 50 55 68 68 84 77 80 71 62 59 56 56 59 57 59 62 60 52 45 36 31
85 85 87 88 88 89 91 91 91 88 86 85 83 81 78 75 70 65 70 66 58 56 58 57 72 65 77 71 72 69 71 66 66 70 69 65 68 62 48 43 36 33 28
84 88 91 94 95 96 98 100 102 102 100 95 90 89 87 85 81 78 72 70 69 68 65 58 67 65 58 67 67 75 74 77 76 70 74 70 59 51 34 35 29 30 28
89 89 91 92 94 96 97 99 101 102 102 100 97 94 91 90 89 84 82 80 79 75 72 68 74 73 79 75 79 83 89 86 79 77 75 69 54 51 41 40 31 26 27
92 92 93 95 96 97 99 103 106 108 108 107 105 102 99 96 95 93 88 85 85 83 80 77 75 78 80 89 89 91 88 88 86 87 80 64 58 53 42 38 33 28 28
81 80 80 80 79 78 79 80 84 89 92 97 102 105 105 104 102 99 95 93 89 87 84 82 77 82 96 98 97 95 94 91 92 81 71 69 65 56 49 39 39 36 31
61 61 61 61 60 60 60 62 65 68 71 75 77 83 89 92 101 108 106 102 95 92 88 85 80 75 83 87 97 84 86 82 77 74 71 73 66 58 56 44 42 40 32
48 47 46 45 45 46 46 48 51 56 59 60 62 65 69 73 77 88 102 110 109 103 98 94 92 95 84 93 90 87 87 89 86 79 73 77 68 68 58 48 49 47 37
36 36 36 35 36 37 38 40 42 43 45 48 52 54 57 59 65 70 79 91 100 106 107 105 102 102 101 96 95 104 100 95 93 87 79 75 77 75 62 54 45 46 42
33 31 32 34 34 34 33 32 34 37 37 38 40 44 50 54 55 61 69 76 83 91 97 99 103 105 103 107 104 109 100 97 94 90 83 83 77 77 62 49 46 46 42
27 28 28 29 29 29 28 28 27 29 32 33 32 34 39 44 48 54 59 66 68 72 80 85 93 99 101 107 107 110 104 104 96 92 87 87 84 80 70 52 42 43 45
26 26 26 26 27 28 28 26 26 26 24 26 30 29 30 34 41 46 51 55 56 59 61 72 82 89 98 102 107 105 106 106 97 96 93 87 85 77 72 60 44 44 48
29 27 26 26 25 25 27 26 25 25 24 21 22 24 26 28 32 37 41 44 49 51 55 63 71 78 86 93 98 101 104 104 103 100 93 89 85 83 72 66 52 49 52
32 30 28 27 26 24 26 25 26 25 24 22 19 17 20 24 26 29 33 37 41 45 50 57 63 69 74 80 85 92 96 96 103 107 102 95 88 81 68 60 54 53 53
27 25 26 27 25 24 23 23 22 22 21 19 18 17 16 16 20 24 28 32 35 39 42 46 50 53 59 66 70 76 83 88 92 89 94 90 82 78 73 60 56 63 54
15 17 20 21 19 16 15 14 14 14 14 14 15 15 15 15 17 19 21 24 29 33 35 38 42 46 50 54 58 62 66 70 74 75 76 74 76 83 80 67 63 66 61
10 6 4 3 2 2 2 3 5 7 8 10 11 12 12 14 17 18 19 21 23 26 29 32 37 40 42 45 48 52 54 57 62 66 67 70 71 74 76 73 65 68 65
16 14 12 10 8 6 5 3 1 3 4 4 6 7 8 11 12 14 16 18 18 19 20 23 27 31 35 39 43 45 47 49 51 54 58 62 66 69 74 76 72 70 70
12 12 11 12 10 8 7 6 4 2 1 3 5 6 7 8 9 11 12 14 15 16 17 20 24 27 31 34 37 38 40 44 47 51 54 56 60 65 71 72 69 73 76
5 7 7 6 7 9 8 8 6 5 5 4 5 6 8 9 10 11 13 16 16 18 20 21 22 23 24 26 30 33 36 40 42 44 47 53 57 59 63 66 66 74 79
Wind_Direction
265 266 266 267 265 264 262 262 261 260 261 261 263 262 263 263 265 267 268 269 272 273 277 283 282 280 280 279 280 282 282 284 285 283 283 287 285 287 282 282 280 276 271
264 264 265 266 267 268 267 267 267 265 264 262 263 265 263 263 265 268 269 270 273 277 282 283 279 279 278 275 276 277 283 286 287 288 290 285 284 281 278 278 281 275 271
264 267 266 263 264 265 266 266 267 266 265 265 264 264 266 264 264 265 266 269 271 277 277 280 283 285 283 276 273 278 282 285 289 290 292 295 298 288 282 280 274 279 277
266 269 270 267 264 261 261 262 263 264 264 264 265 265 264 264 261 260 262 262 262 263 280 284 284 289 293 273 272 277 286 287 285 288 294 297 308 302 289 285 283 275 279
270 269 268 264 264 262 259 258 260 261 261 262 262 260 258 257 259 251 255 253 260 247 250 294 284 282 284 274 272 273 283 287 283 287 293 295 298 302 304 296 290 286 271
268 267 266 263 262 262 263 261 259 259 260 260 259 260 261 259 254 245 248 253 245 229 220 233 249 260 272 271 265 273 276 274 276 291 296 294 297 299 296 297 293 288 276
265 265 263 262 263 264 264 263 263 262 260 259 259 257 256 257 254 248 248 249 242 215 215 216 228 248 255 267 265 270 277 279 281 283 294 299 296 297 292 292 286 283 284
264 263 262 262 264 266 267 267 266 264 263 262 260 258 256 254 254 250 248 248 241 218 224 228 231 236 243 250 257 264 274 276 283 287 293 294 299 290 287 287 279 280 284
266 265 264 264 263 263 264 264 264 263 262 262 260 258 256 255 252 250 248 245 237 238 240 234 229 226 234 242 251 260 266 274 281 287 290 292 283 292 281 289 274 274 281
271 270 268 266 265 264 264 262 262 262 261 260 258 256 255 255 254 251 247 245 240 236 239 240 232 233 251 243 251 258 266 273 277 283 287 284 275 288 280 289 265 271 280
272 270 269 268 268 267 265 263 262 261 260 260 258 255 253 251 251 250 247 244 244 244 245 244 241 239 246 247 254 261 267 269 274 277 279 274 274 284 283 281 261 253 266
272 272 271 271 270 268 266 264 263 261 259 257 257 256 253 250 248 247 247 246 243 243 242 243 246 241 239 244 251 258 261 262 267 272 270 272 270 280 286 275 266 257 252
272 273 273 272 271 270 268 264 262 261 259 257 254 253 253 249 248 245 245 244 243 241 240 240 233 232 243 243 253 255 258 260 265 270 260 272 266 282 279 279 275 264 249
273 274 274 275 274 272 271 268 264 261 260 258 256 253 251 249 245 243 241 241 241 240 240 238 238 238 237 239 250 248 258 262 262 262 261 262 264 278 274 281 270 275 255
284 284 284 282 281 278 274 272 268 264 263 261 258 254 251 248 243 239 238 239 239 239 239 238 238 238 241 245 247 249 256 256 260 256 261 262 266 276 275 276 272 265 261
287 286 284 283 281 280 279 276 273 271 265 261 259 255 250 245 242 237 235 235 237 236 236 237 236 237 239 239 243 247 252 249 254 258 257 264 266 269 273 264 278 247 258
284 282 282 285 287 287 283 280 277 271 270 265 259 254 251 246 240 237 235 236 236 236 236 235 235 235 236 240 239 243 248 247 252 252 256 262 264 269 271 266 252 250 247
278 282 282 283 288 286 285 285 282 277 270 262 263 259 252 246 242 238 237 237 239 238 233 232 233 233 234 239 240 243 245 247 250 249 252 258 261 265 267 263 251 237 240
281 280 280 283 284 291 287 283 283 281 274 266 254 250 250 246 241 240 236 233 234 234 232 230 230 232 234 235 238 240 241 245 247 249 251 256 257 260 260 258 249 231 235
276 276 278 285 286 284 286 282 278 279 275 271 263 249 240 238 242 241 237 234 232 230 229 228 228 229 231 233 235 239 240 242 243 245 249 252 255 253 252 248 239 226 226
279 276 279 281 282 285 280 276 279 275 275 272 268 264 254 246 236 231 232 236 236 234 232 232 234 233 232 233 233 235 236 239 240 242 244 246 247 246 245 237 232 223 220
295 278 277 282 288 284 286 283 280 275 277 270 266 265 262 256 247 241 237 235 235 234 232 230 231 231 230 232 234 235 236 237 238 239 239 236 236 240 241 233 223 219 217
7 3 348 339 5 38 12 318 295 281 270 266 260 255 250 248 250 249 242 235 233 231 229 226 227 228 230 231 234 234 234 234 233 232 231 231 228 226 225 225 219 212 214
54 60 67 69 68 73 64 52 340 258 245 241 252 255 252 249 244 237 236 234 232 230 230 228 226 226 227 230 233 234 234 230 229 229 228 226 225 221 219 214 211 211 209
74 76 74 76 69 62 61 63 62 64 264 271 271 265 258 245 239 238 230 223 222 222 223 223 224 226 228 230 233 234 232 228 224 223 222 221 219 218 217 216 213 206 205
89 88 81 73 61 47 33 28 20 355 317 276 252 247 251 253 251 242 238 235 226 224 226 223 222 223 226 228 231 231 229 226 222 218 218 217 214 213 213 213 210 206 205
Height
10672 10672 10672 10672 10674 10676 10680 10681 10685 10689 10691 10696 10693 10702 10709 10714 10717 10719 10721 10722 10724 10725 10727 10729 10729 10728 10726 10725 10724 10722 10720 10723 10725 10727 10727 10728 10728 10727 10727 10726 10726 10726 10725
10654 10656 10657 10656 10656 10657 10660 10662 10663 10666 10668 10674 10677 10679 10688 10694 10696 10700 10702 10704 10709 10712 10716 10718 10717 10716 10713 10712 10711 10712 10710 10711 10714 10716 10718 10718 10719 10719 10717 10717 10718 10717 10717
10635 10636 10639 10640 10640 10638 10641 10643 10644 10646 10649 10652 10659 10661 10665 10672 10678 10681 10684 10689 10695 10702 10705 10707 10706 10704 10703 10701 10700 10699 10700 10700 10702 10705 10707 10709 10711 10709 10708 10707 10708 10708 10707
10615 10616 10617 10618 10620 10623 10623 10624 10625 10629 10630 10634 10639 10643 10648 10650 10660 10663 10667 10674 10682 10690 10697 10697 10698 10695 10691 10691 10688 10688 10689 10691 10692 10695 10698 10700 10700 10697 10696 10696 10695 10695 10696
10594 10595 10596 10598 10598 10601 10604 10606 10608 10609 10612 10616 10620 10626 10626 10634 10642 10648 10652 10658 10670 10680 10690 10680 10684 10680 10679 10677 10677 10677 10679 10681 10683 10686 10688 10689 10689 10688 10687 10685 10684 10684 10683
10573 10574 10574 10576 10578 10580 10582 10586 10590 10592 10595 10599 10603 10606 10607 10614 10626 10631 10636 10644 10656 10665 10669 10677 10671 10668 10665 10664 10664 10659 10668 10673 10674 10676 10678 10679 10679 10678 10678 10677 10675 10674 10673
10551 10551 10552 10553 10555 10556 10560 10563 10565 10570 10575 10579 10585 10589 10591 10595 10605 10614 10618 10628 10640 10644 10649 10646 10652 10654 10654 10652 10651 10647 10649 10657 10662 10662 10666 10669 10669 10667 10666 10665 10664 10663 10664
10526 10527 10528 10530 10532 10532 10533 10535 10539 10543 10549 10555 10561 10566 10571 10577 10585 10594 10599 10609 10621 10630 10635 10639 10640 10643 10646 10640 10637 10637 10635 10642 10647 10649 10653 10658 10661 10658 10657 10655 10654 10655 10656
10501 10501 10502 10504 10506 10506 10505 10504 10505 10508 10515 10524 10531 10538 10545 10551 10561 10571 10581 10588 10596 10606 10615 10623 10626 10629 10629 10625 10625 10626 10624 10628 10633 10637 10641 10647 10650 10651 10649 10647 10647 10648 10650
10470 10472 10470 10470 10470 10471 10472 10473 10473 10475 10480 10485 10495 10507 10516 10524 10530 10541 10553 10563 10573 10580 10591 10599 10607 10611 10608 10610 10612 10614 10615 10616 10618 10624 10630 10635 10640 10643 10642 10641 10640 10642 10644
10443 10439 10437 10436 10437 10438 10439 10438 10438 10438 10443 10450 10458 10469 10481 10491 10499 10509 10522 10534 10544 10554 10565 10577 10586 10588 10587 10590 10595 10597 10600 10601 10604 10611 10618 10624 10629 10632 10632 10633 10632 10634 10636
10415 10412 10409 10407 10405 10405 10403 10402 10402 10403 10407 10414 10419 10426 10441 10454 10465 10479 10492 10502 10517 10530 10541 10550 10558 10565 10569 10570 10577 10583 10584 10589 10595 10598 10602 10609 10615 10621 10622 10624 10625 10625 10629
10390 10388 10386 10384 10382 10380 10378 10377 10376 10376 10378 10382 10388 10395 10402 10413 10428 10446 10458 10470 10487 10501 10514 10523 10535 10538 10544 10543 10547 10562 10567 10571 10577 10585 10589 10591 10600 10607 10608 10613 10616 10617 10622
10375 10373 10370 10367 10363 10361 10359 10357 10356 10355 10357 10360 10365 10369 10374 10383 10394 10408 10422 10436 10451 10469 10485 10497 10504 10511 10519 10529 10532 10539 10545 10550 10560 10567 10577 10576 10585 10591 10595 10601 10606 10608 10612
10361 10359 10356 10353 10349 10346 10343 10341 10339 10340 10341 10342 10345 10350 10354 10360 10366 10378 10391 10404 10420 10435 10448 10466 10480 10489 10500 10510 10515 10518 10527 10533 10542 10549 10558 10562 10568 10575 10580 10587 10593 10598 10602
10349 10347 10343 10340 10337 10335 10332 10329 10328 10327 10327 10328 10330 10333 10336 10340 10350 10358 10365 10376 10388 10403 10417 10436 10452 10467 10480 10486 10494 10497 10507 10516 10521 10532 10541 10546 10552 10558 10564 10571 10578 10583 10591
10341 10337 10334 10330 10327 10324 10322 10319 10318 10317 10315 10316 10317 10319 10322 10326 10332 10340 10347 10354 10366 10379 10395 10411 10426 10438 10451 10457 10465 10473 10482 10495 10503 10511 10519 10529 10533 10541 10549 10557 10565 10572 10578
10332 10329 10326 10323 10319 10316 10313 10311 10309 10308 10308 10308 10307 10309 10312 10315 10319 10325 10332 10340 10350 10363 10377 10388 10400 10412 10422 10429 10441 10453 10460 10470 10484 10491 10502 10510 10517 10523 10535 10542 10552 10559 10566
10323 10319 10317 10315 10312 10309 10305 10303 10302 10301 10300 10300 10301 10303 10305 10306 10310 10314 10321 10329 10337 10346 10355 10364 10374 10386 10397 10408 10417 10426 10438 10449 10460 10471 10481 10491 10498 10508 10518 10527 10537 10548 10553
10312 10310 10308 10306 10304 10302 10298 10296 10294 10294 10293 10293 10295 10297 10298 10300 10303 10306 10311 10317 10323 10329 10335 10342 10350 10360 10370 10382 10393 10404 10415 10427 10437 10451 10460 10470 10480 10490 10501 10510 10522 10534 10541
10298 10298 10298 10297 10296 10294 10292 10290 10288 10288 10288 10288 10289 10291 10293 10295 10297 10300 10303 10306 10311 10318 10325 10331 10338 10347 10356 10364 10371 10382 10392 10402 10412 10425 10438 10449 10461 10471 10483 10492 10506 10518 10525
10290 10290 10290 10290 10289 10288 10287 10286 10285 10285 10285 10285 10286 10287 10288 10290 10292 10294 10297 10300 10304 10308 10314 10320 10326 10333 10340 10348 10355 10363 10373 10381 10391 10401 10414 10425 10437 10453 10460 10473 10487 10499 10511
10290 10288 10287 10287 10287 10287 10286 10285 10285 10284 10284 10284 10285 10285 10286 10287 10288 10290 10292 10294 10298 10302 10306 10311 10316 10321 10327 10334 10340 10346 10354 10362 10369 10378 10390 10400 10411 10425 10436 10450 10464 10479 10494
10295 10293 10291 10290 10289 10288 10287 10285 10285 10285 10285 10285 10285 10285 10286 10286 10287 10288 10289 10291 10293 10295 10298 10302 10306 10310 10315 10320 10325 10331 10336 10343 10352 10361 10370 10381 10391 10402 10416 10427 10441 10457 10474
10300 10297 10295 10293 10292 10290 10288 10287 10286 10285 10285 10284 10284 10284 10283 10284 10284 10286 10287 10289 10290 10292 10294 10296 10299 10302 10306 10310 10314 10319 10324 10330 10337 10344 10354 10363 10374 10385 10397 10411 10426 10439 10455
10303 10301 10298 10297 10295 10293 10291 10289 10287 10285 10284 10283 10282 10282 10281 10281 10281 10282 10283 10284 10285 10287 10288 10291 10294 10297 10300 10303 10306 10309 10314 10320 10327 10333 10342 10351 10361 10372 10384 10397 10411 10426 10435